Гукасян

Армения     40°37′29″N   43°58′22″E
темп.,
°C
ветер,
м/с
пор.,
м/с
влажн.,
%
обл.,
%
осадки,
мм/ч
давл.,
гПа
погр.,
м
6 марта, сб
сб601:00−9ссз12310 0.0 102721
04:00−9ю01340 0.0 102821
07:00−9юв12340 0.0 102821
10:00−5ююв23590 0.0 102746
13:00−3ю46620 0.0 1024213
16:00−3ю35610 0.0 1022127
19:00−7ююв33447 0.0 102324
22:00−7юв334549 0.0 102423
7 марта, вс
вс701:00−7ююв335091 0.0 102325
04:00−6ю236495 0.0 102249
07:00−7ююз2372100 0.0 102164
10:00−5юз257299 0.0 1020427
13:00−3юз347047 0.0 1017677
16:00−3юз237872 0.0 1016644
19:00−6ююв1292100 0.5 101729
22:00−6ю1188100 0.8 102021
8 марта, пн
пн801:00−7ююв1292100 0.3 102021
04:00−6ююв239599 0.6 1019119
07:00−7юв2393100 0.1 101864
10:00−4ююв469699 0.7 1017338
13:00−3ююв7996100 2.1 1013663
16:00−4ю3698100 5.0 1011414
19:00−6с3494100 7.9 1012150
22:00−8ссв468886 8.1 1016139
9 марта, вт
вт901:00−11ссв237681 0.0 101722
04:00−13ссв128373 0.0 101821
07:00−12зюз119093 0.0 101922
10:00−8юз229166 0.0 1019137
13:00−7юз227412 0.0 1018351
16:00−7зсз23626 0.0 1017419
19:00−12ссв136713 0.0 102022
22:00−12св12566 0.0 102421
10 марта, ср
ср1001:00−12ююз125518 0.0 102522
04:00−12ююв125842 0.0 102424
07:00−12ююв236293 0.0 102326
10:00−8ю467996 0.0 1022246
13:00−6ю5685100 0.0 1019422
16:00−6ю5687100 0.1 1016440
19:00−7ююв4587100 0.1 1016116
22:00−7ююв568997 0.2 1017126